Location: Bois de la Silve
(44.4667°N, 6.7833°E)
Time: 00:32:27
(UTC+00:00)

USA 238 DEB - Pass Details

Date: 29 October 2020
Orbit: 1001 x 1211 km, 63.5° (Epoch: 22 November)

Event Time Altitude Azimuth Distance (km) Brightness Sun altitude
Exits shadow 03:45:25 35° 322° (NW) 1,636 4.4 -25.7°
Maximum altitude 03:45:30 35° 323° (NW) 1,637 4.4 -25.7°
Drops below altitude 10° 03:51:48 10° 28° (NNE) 2,949 6.4 -24.5°
Sets 03:54:49 0° 38° (NE) 3,944 7.3 -24.0°
